Regional Weather Roundup
Issued by NWS

Home | Current Version | Previous Version | Text Only | Print | Product List | Glossary Off
Versions: 1 2 3 4 5 6 7 8 9 10 11 12 13 14 15 16 17 18 19 20 21 22 23 24 25 26 27 28 29 30 31 32 33 34 35 36 37 38 39 40 41 42 43 44 45 46 47 48 49 50

000
ASUS45 KCYS 270310
RWRWY

WYOMING REGIONAL WEATHER ROUNDUP
NATIONAL WEATHER SERVICE CHEYENNE WY
800 PM MST MON JAN 26 2015

NOTE:  "FAIR" INDICATES FEW OR NO CLOUDS BELOW 12,000 FEET
WITH NO SIGNIFICANT WEATHER AND/OR OBSTRUCTIONS TO VISIBILITY.

WYZ001-270400-
YELLOWSTONE NATIONAL PARK

CITY           SKY/WX    TMP DP  RH WIND       PRES   REMARKS
LK YELLOWSTONE   N/A     21  18  88 CALM      30.33F
W YELLOWSTONE  NOT AVBL

$$
WYZ002>013-054>058-071-098>099-270400-
NORTHERN WYOMING

CITY           SKY/WX    TMP DP  RH WIND       PRES   REMARKS
JACKSON        CLEAR     16  16 100 N8        30.32F WCI   5
CODY           FAIR      36  30  80 S5        30.13S WCI  32
GREYBULL       FAIR      25  22  88 W3        30.14S
WORLAND        FAIR      28  24  85 SW5       30.14S WCI  23
SHERIDAN       FAIR      41  28  60 VRB3      30.01F
BUFFALO          N/A     51  24  34 W10       30.08F
GILLETTE       FAIR      50  29  44 SW21      30.03F
HULETT           N/A    N/A N/A N/A MISG        N/A
NEWCASTLE      FAIR      36  30  80 CALM      30.08S

$$
WYZ014>020-022>026-101>103-270400-
CENTRAL WYOMING

CITY           SKY/WX    TMP DP  RH WIND       PRES   REMARKS
BIG PINEY      FAIR      25  22  88 N5        30.32F WCI  19
PINEDALE       FAIR      23  19  86 NW3       30.33R
DUBOIS         FAIR      41  21  45 W14       30.24S
LANDER         FAIR      35  27  72 CALM      30.20S
RIVERTON       FAIR      34  27  75 W6        30.21S WCI  29
CASPER         FAIR      44  27  51 SW13      30.18F
DOUGLAS        FAIR      40  27  59 N10       30.15S WCI  33

$$
WYZ021-027>030-104>119-270400-
SOUTHERN WYOMING

CITY           SKY/WX    TMP DP  RH WIND       PRES   REMARKS
EVANSTON       FAIR      38  28  67 E5        30.29S WCI  34
KEMMERER       FAIR      34  28  80 N9        30.31S WCI  26
FORT BRIDGER   FAIR      45  31  58 NE5       30.32F
ROCK SPRINGS   FAIR      40  26  57 S13       30.29R WCI  32
DIXON          FAIR      31  26  81 SE3       30.36S
RAWLINS        FAIR      32  24  72 W3        30.31F
SARATOGA       FAIR      34  27  75 CALM      30.32F
LARAMIE        FAIR      30  25  81 CALM      30.30S
CHEYENNE       FAIR      43  22  43 W13       30.23R
TORRINGTON     FAIR      47  27  45 W9        30.12R
PINE BLUFFS    FAIR      36  27  69 W7        30.20S WCI  30

$$


USA.gov is the U.S. government's official web portal to all federal, state and local government web resources and services.